QPF
0.06 0.07 0.07 0.06 0.05 0.05 0.05 0.06 0.08 0.05 0.01 0.00 0.00 0.00 0.00 0.00 0.00 0.01 0.01 0.02 0.03 0.04 0.04 0.03 0.03 0.07 0.16 0.33 0.71 1.10 1.15 0.84 0.51 0.33 0.27 0.30 0.34 0.35
0.08 0.08 0.07 0.07 0.06 0.05 0.06 0.06 0.07 0.08 0.04 0.00 0.00 0.00 0.00 0.00 0.00 0.00 0.01 0.02 0.02 0.03 0.04 0.04 0.02 0.03 0.08 0.17 0.37 0.77 1.11 1.11 0.80 0.52 0.38 0.34 0.34 0.36
0.06 0.07 0.06 0.06 0.06 0.05 0.05 0.05 0.06 0.06 0.05 0.01 0.00 0.00 0.00 0.00 0.00 0.00 0.01 0.02 0.02 0.03 0.04 0.04 0.03 0.02 0.04 0.10 0.21 0.44 0.79 1.04 0.96 0.72 0.55 0.45 0.40 0.36
0.03 0.04 0.04 0.04 0.05 0.06 0.05 0.05 0.04 0.05 0.05 0.03 0.00 0.00 0.00 0.00 0.01 0.01 0.01 0.01 0.03 0.03 0.05 0.05 0.04 0.04 0.04 0.07 0.14 0.26 0.50 0.73 0.82 0.71 0.60 0.52 0.45 0.40
0.02 0.02 0.03 0.03 0.04 0.04 0.04 0.04 0.03 0.03 0.04 0.04 0.02 0.01 0.02 0.01 0.01 0.01 0.01 0.02 0.02 0.03 0.04 0.06 0.05 0.05 0.05 0.06 0.11 0.18 0.30 0.47 0.57 0.56 0.51 0.51 0.49 0.45
0.00 0.01 0.01 0.03 0.05 0.04 0.04 0.04 0.03 0.03 0.03 0.03 0.03 0.03 0.02 0.01 0.02 0.02 0.02 0.02 0.02 0.03 0.03 0.05 0.06 0.07 0.07 0.06 0.07 0.11 0.18 0.30 0.43 0.49 0.46 0.43 0.46 0.45
0.00 0.00 0.00 0.01 0.04 0.04 0.05 0.06 0.05 0.05 0.05 0.04 0.04 0.04 0.03 0.03 0.03 0.02 0.02 0.02 0.03 0.04 0.04 0.05 0.07 0.08 0.09 0.08 0.08 0.09 0.14 0.20 0.28 0.40 0.46 0.44 0.41 0.39
0.00 0.00 0.00 0.00 0.03 0.03 0.02 0.04 0.06 0.09 0.09 0.07 0.06 0.05 0.05 0.04 0.03 0.02 0.03 0.04 0.05 0.05 0.06 0.07 0.09 0.12 0.12 0.10 0.08 0.06 0.09 0.15 0.20 0.29 0.39 0.44 0.43 0.39
0.00 0.00 0.00 0.00 0.03 0.05 0.01 0.01 0.03 0.05 0.09 0.09 0.07 0.06 0.06 0.05 0.04 0.02 0.03 0.05 0.05 0.06 0.06 0.09 0.11 0.15 0.17 0.15 0.11 0.07 0.07 0.10 0.15 0.20 0.30 0.42 0.48 0.47
0.00 0.00 0.00 0.01 0.03 0.05 0.01 0.01 0.02 0.03 0.06 0.08 0.09 0.07 0.05 0.04 0.04 0.03 0.03 0.04 0.05 0.05 0.05 0.09 0.13 0.17 0.21 0.19 0.13 0.08 0.07 0.08 0.11 0.15 0.22 0.35 0.51 0.56
0.00 0.00 0.00 0.01 0.03 0.03 0.01 0.00 0.01 0.02 0.03 0.05 0.06 0.05 0.03 0.03 0.03 0.02 0.02 0.03 0.06 0.08 0.06 0.07 0.14 0.19 0.24 0.24 0.18 0.11 0.08 0.08 0.09 0.13 0.17 0.26 0.42 0.60
0.00 0.00 0.00 0.02 0.02 0.02 0.01 0.01 0.02 0.02 0.02 0.02 0.02 0.02 0.01 0.01 0.02 0.02 0.03 0.03 0.06 0.10 0.09 0.08 0.16 0.22 0.30 0.30 0.24 0.14 0.09 0.09 0.10 0.11 0.15 0.22 0.34 0.54
0.00 0.00 0.00 0.01 0.01 0.01 0.01 0.01 0.03 0.02 0.01 0.02 0.01 0.01 0.01 0.01 0.01 0.02 0.03 0.03 0.05 0.09 0.11 0.10 0.17 0.22 0.29 0.34 0.29 0.20 0.10 0.08 0.11 0.15 0.18 0.23 0.30 0.39
0.00 0.00 0.00 0.01 0.00 0.00 0.00 0.01 0.01 0.00 0.01 0.01 0.01 0.00 0.01 0.01 0.01 0.01 0.01 0.02 0.04 0.07 0.10 0.10 0.16 0.22 0.25 0.30 0.30 0.26 0.17 0.11 0.10 0.13 0.18 0.28 0.34 0.33
0.00 0.00 0.00 0.00 0.00 0.00 0.00 0.00 0.00 0.00 0.00 0.01 0.01 0.00 0.01 0.01 0.01 0.01 0.01 0.01 0.02 0.05 0.08 0.09 0.13 0.20 0.24 0.28 0.28 0.24 0.21 0.18 0.13 0.13 0.18 0.24 0.28 0.28
0.00 0.00 0.00 0.00 0.00 0.00 0.00 0.00 0.00 0.00 0.00 0.00 0.00 0.00 0.00 0.00 0.00 0.01 0.01 0.01 0.02 0.03 0.05 0.08 0.11 0.19 0.25 0.27 0.26 0.21 0.16 0.19 0.15 0.12 0.17 0.24 0.25 0.19
0.01 0.00 0.00 0.00 0.00 0.00 0.00 0.00 0.00 0.00 0.00 0.00 0.00 0.00 0.00 0.00 0.00 0.01 0.01 0.01 0.02 0.03 0.04 0.07 0.10 0.16 0.27 0.34 0.32 0.24 0.16 0.14 0.13 0.09 0.11 0.20 0.26 0.22
0.00 0.00 0.00 0.00 0.00 0.00 0.00 0.00 0.00 0.00 0.00 0.00 0.00 0.00 0.01 0.01 0.01 0.01 0.01 0.02 0.03 0.04 0.04 0.06 0.09 0.14 0.28 0.38 0.39 0.27 0.17 0.13 0.12 0.08 0.07 0.13 0.23 0.26
0.00 0.00 0.00 0.00 0.00 0.00 0.00 0.00 0.00 0.00 0.00 0.00 0.00 0.00 0.01 0.01 0.01 0.01 0.01 0.02 0.03 0.05 0.06 0.07 0.08 0.13 0.25 0.37 0.43 0.33 0.18 0.12 0.12 0.13 0.10 0.10 0.15 0.23
0.01 0.01 0.01 0.01 0.00 0.00 0.00 0.00 0.00 0.00 0.00 0.00 0.00 0.00 0.00 0.01 0.01 0.01 0.02 0.03 0.04 0.06 0.07 0.08 0.09 0.13 0.20 0.26 0.33 0.35 0.27 0.14 0.11 0.14 0.17 0.15 0.14 0.20
0.01 0.02 0.02 0.01 0.01 0.00 0.00 0.00 0.00 0.00 0.00 0.00 0.00 0.00 0.00 0.01 0.01 0.01 0.01 0.03 0.05 0.06 0.08 0.10 0.13 0.14 0.18 0.22 0.23 0.30 0.32 0.26 0.13 0.09 0.12 0.14 0.15 0.16
0.01 0.02 0.02 0.02 0.01 0.01 0.00 0.00 0.00 0.00 0.00 0.00 0.00 0.00 0.00 0.01 0.01 0.01 0.01 0.02 0.04 0.07 0.09 0.13 0.16 0.17 0.21 0.26 0.26 0.26 0.31 0.35 0.29 0.17 0.11 0.09 0.08 0.09
0.02 0.02 0.03 0.03 0.02 0.01 0.01 0.00 0.00 0.00 0.00 0.00 0.00 0.00 0.00 0.00 0.01 0.01 0.01 0.02 0.03 0.06 0.09 0.14 0.18 0.20 0.26 0.31 0.30 0.25 0.24 0.29 0.30 0.26 0.25 0.19 0.11 0.07
MSLP
1019.60 1019.03 1018.43 1017.76 1016.97 1016.05 1014.99 1013.81 1012.57 1011.32 1010.12 1009.03 1008.09 1007.32 1006.70 1006.22 1005.83 1005.50 1005.17 1004.83 1004.46 1004.08 1003.70 1003.36 1003.07 1002.88 1002.79 1002.82 1002.96 1003.23 1003.61 1004.09 1004.68 1005.36 1006.15 1007.02 1007.96 1008.97
1019.19 1018.55 1017.89 1017.19 1016.41 1015.51 1014.51 1013.41 1012.26 1011.09 1009.97 1008.93 1008.02 1007.23 1006.58 1006.03 1005.56 1005.14 1004.74 1004.35 1003.96 1003.58 1003.24 1002.94 1002.72 1002.58 1002.54 1002.58 1002.72 1002.96 1003.27 1003.68 1004.18 1004.78 1005.50 1006.32 1007.24 1008.24
1018.94 1018.21 1017.49 1016.74 1015.94 1015.06 1014.11 1013.10 1012.05 1010.99 1009.97 1009.01 1008.14 1007.36 1006.66 1006.03 1005.45 1004.90 1004.38 1003.88 1003.41 1002.98 1002.63 1002.36 1002.18 1002.10 1002.11 1002.21 1002.39 1002.62 1002.93 1003.30 1003.76 1004.31 1004.98 1005.77 1006.66 1007.65
1018.85 1018.05 1017.26 1016.46 1015.64 1014.77 1013.87 1012.94 1011.99 1011.06 1010.15 1009.28 1008.45 1007.68 1006.94 1006.22 1005.51 1004.81 1004.13 1003.48 1002.88 1002.36 1001.95 1001.67 1001.51 1001.48 1001.55 1001.71 1001.95 1002.23 1002.56 1002.95 1003.41 1003.95 1004.60 1005.36 1006.24 1007.21
1018.90 1018.05 1017.21 1016.37 1015.53 1014.67 1013.81 1012.95 1012.10 1011.27 1010.46 1009.68 1008.92 1008.15 1007.38 1006.57 1005.74 1004.89 1004.03 1003.21 1002.45 1001.81 1001.31 1000.97 1000.80 1000.79 1000.91 1001.14 1001.44 1001.79 1002.18 1002.62 1003.11 1003.67 1004.33 1005.09 1005.96 1006.92
1019.00 1018.14 1017.28 1016.42 1015.56 1014.72 1013.89 1013.08 1012.31 1011.57 1010.85 1010.15 1009.44 1008.70 1007.91 1007.04 1006.11 1005.12 1004.11 1003.12 1002.21 1001.43 1000.81 1000.39 1000.18 1000.15 1000.28 1000.55 1000.90 1001.32 1001.78 1002.28 1002.83 1003.44 1004.13 1004.91 1005.79 1006.74
1019.06 1018.22 1017.37 1016.52 1015.67 1014.84 1014.04 1013.27 1012.55 1011.88 1011.23 1010.60 1009.94 1009.23 1008.44 1007.54 1006.55 1005.47 1004.35 1003.24 1002.19 1001.28 1000.54 1000.02 999.72 999.64 999.75 1000.01 1000.39 1000.85 1001.37 1001.93 1002.54 1003.21 1003.94 1004.76 1005.66 1006.62
1018.98 1018.20 1017.40 1016.58 1015.76 1014.95 1014.16 1013.43 1012.74 1012.10 1011.51 1010.92 1010.31 1009.64 1008.88 1008.00 1007.00 1005.89 1004.72 1003.53 1002.39 1001.37 1000.53 999.90 999.50 999.33 999.37 999.59 999.95 1000.42 1000.96 1001.56 1002.22 1002.94 1003.73 1004.59 1005.52 1006.51
1018.74 1018.05 1017.32 1016.55 1015.77 1014.99 1014.22 1013.49 1012.82 1012.20 1011.62 1011.07 1010.50 1009.88 1009.17 1008.34 1007.39 1006.31 1005.15 1003.95 1002.78 1001.69 1000.77 1000.03 999.52 999.24 999.18 999.32 999.61 1000.04 1000.57 1001.18 1001.87 1002.63 1003.46 1004.36 1005.32 1006.35
1018.35 1017.75 1017.11 1016.42 1015.69 1014.94 1014.19 1013.47 1012.78 1012.16 1011.58 1011.04 1010.50 1009.92 1009.28 1008.52 1007.65 1006.66 1005.57 1004.42 1003.26 1002.17 1001.19 1000.38 999.76 999.37 999.18 999.20 999.40 999.75 1000.23 1000.82 1001.50 1002.28 1003.13 1004.07 1005.07 1006.13
1017.88 1017.38 1016.83 1016.23 1015.56 1014.85 1014.12 1013.39 1012.68 1012.03 1011.42 1010.87 1010.33 1009.79 1009.21 1008.54 1007.77 1006.89 1005.91 1004.85 1003.76 1002.70 1001.71 1000.85 1000.15 999.65 999.34 999.23 999.32 999.57 999.97 1000.51 1001.16 1001.93 1002.80 1003.75 1004.78 1005.87
1017.44 1017.03 1016.58 1016.05 1015.45 1014.79 1014.07 1013.33 1012.59 1011.90 1011.25 1010.65 1010.10 1009.57 1009.03 1008.43 1007.76 1007.00 1006.13 1005.19 1004.20 1003.20 1002.24 1001.36 1000.62 1000.03 999.62 999.40 999.37 999.52 999.83 1000.31 1000.92 1001.66 1002.52 1003.48 1004.52 1005.64
1017.13 1016.80 1016.42 1015.98 1015.44 1014.82 1014.12 1013.37 1012.60 1011.85 1011.15 1010.50 1009.91 1009.35 1008.82 1008.26 1007.67 1007.00 1006.25 1005.42 1004.53 1003.61 1002.71 1001.85 1001.09 1000.45 999.97 999.67 999.55 999.62 999.86 1000.27 1000.83 1001.54 1002.37 1003.32 1004.37 1005.49
1017.01 1016.74 1016.43 1016.04 1015.57 1014.99 1014.31 1013.56 1012.77 1011.97 1011.20 1010.48 1009.83 1009.23 1008.67 1008.12 1007.55 1006.95 1006.28 1005.55 1004.76 1003.92 1003.09 1002.28 1001.54 1000.90 1000.39 1000.04 999.87 999.88 1000.07 1000.43 1000.95 1001.62 1002.43 1003.36 1004.39 1005.50
1017.09 1016.85 1016.59 1016.26 1015.84 1015.29 1014.64 1013.90 1013.10 1012.27 1011.44 1010.66 1009.93 1009.27 1008.65 1008.07 1007.50 1006.91 1006.29 1005.62 1004.91 1004.16 1003.39 1002.65 1001.96 1001.35 1000.86 1000.51 1000.33 1000.32 1000.48 1000.81 1001.30 1001.95 1002.73 1003.63 1004.64 1005.73
1017.33 1017.11 1016.87 1016.57 1016.19 1015.69 1015.08 1014.36 1013.56 1012.72 1011.86 1011.03 1010.24 1009.50 1008.82 1008.18 1007.57 1006.97 1006.36 1005.72 1005.05 1004.36 1003.67 1002.99 1002.37 1001.82 1001.38 1001.07 1000.91 1000.91 1001.08 1001.41 1001.90 1002.53 1003.29 1004.17 1005.15 1006.22
1017.65 1017.42 1017.18 1016.90 1016.55 1016.09 1015.53 1014.85 1014.09 1013.27 1012.41 1011.56 1010.72 1009.93 1009.19 1008.49 1007.82 1007.18 1006.54 1005.90 1005.25 1004.60 1003.97 1003.36 1002.81 1002.33 1001.96 1001.72 1001.61 1001.66 1001.86 1002.21 1002.71 1003.34 1004.09 1004.96 1005.92 1006.97
1017.97 1017.70 1017.44 1017.17 1016.83 1016.42 1015.91 1015.30 1014.61 1013.84 1013.03 1012.19 1011.35 1010.53 1009.75 1008.99 1008.27 1007.57 1006.89 1006.23 1005.58 1004.95 1004.36 1003.80 1003.32 1002.92 1002.62 1002.45 1002.42 1002.52 1002.78 1003.17 1003.70 1004.35 1005.11 1005.98 1006.93 1007.96
1018.21 1017.89 1017.60 1017.31 1016.99 1016.61 1016.16 1015.64 1015.03 1014.36 1013.62 1012.85 1012.05 1011.25 1010.45 1009.66 1008.90 1008.15 1007.43 1006.73 1006.07 1005.44 1004.87 1004.36 1003.92 1003.59 1003.37 1003.27 1003.31 1003.48 1003.80 1004.24 1004.81 1005.50 1006.28 1007.17 1008.12 1009.15
1018.35 1017.97 1017.63 1017.31 1016.99 1016.65 1016.27 1015.84 1015.34 1014.78 1014.16 1013.49 1012.77 1012.02 1011.24 1010.46 1009.68 1008.90 1008.15 1007.42 1006.73 1006.09 1005.52 1005.04 1004.64 1004.36 1004.20 1004.17 1004.27 1004.51 1004.88 1005.38 1006.00 1006.73 1007.55 1008.46 1009.44 1010.48
1018.41 1017.96 1017.57 1017.21 1016.88 1016.57 1016.25 1015.92 1015.54 1015.11 1014.62 1014.07 1013.46 1012.80 1012.08 1011.33 1010.56 1009.77 1009.00 1008.24 1007.54 1006.89 1006.32 1005.84 1005.48 1005.23 1005.11 1005.13 1005.29 1005.59 1006.01 1006.56 1007.23 1008.00 1008.87 1009.81 1010.81 1011.87
1018.42 1017.91 1017.45 1017.06 1016.72 1016.42 1016.16 1015.90 1015.64 1015.34 1015.00 1014.59 1014.11 1013.55 1012.92 1012.23 1011.48 1010.72 1009.94 1009.18 1008.46 1007.80 1007.23 1006.76 1006.41 1006.19 1006.10 1006.16 1006.37 1006.71 1007.18 1007.77 1008.48 1009.29 1010.19 1011.16 1012.19 1013.26
1018.44 1017.87 1017.35 1016.91 1016.55 1016.26 1016.04 1015.86 1015.69 1015.52 1015.30 1015.03 1014.68 1014.24 1013.71 1013.09 1012.41 1011.68 1010.92 1010.16 1009.44 1008.79 1008.22 1007.76 1007.42 1007.22 1007.17 1007.26 1007.49 1007.86 1008.37 1008.99 1009.73 1010.56 1011.48 1012.47 1013.51 1014.58
Thickness
5126 5127 5130 5135 5143 5152 5165 5179 5196 5219 5242 5261 5276 5290 5304 5324 5347 5372 5401 5432 5461 5489 5517 5543 5567 5587 5605 5622 5637 5649 5658 5665 5670 5672 5673 5674 5675 5676
5130 5132 5136 5141 5148 5157 5167 5179 5192 5207 5228 5248 5264 5280 5296 5316 5339 5364 5392 5421 5450 5479 5507 5532 5555 5576 5595 5611 5626 5639 5650 5657 5663 5668 5669 5670 5671 5671
5129 5132 5137 5143 5151 5160 5169 5179 5191 5204 5220 5239 5256 5273 5290 5310 5333 5358 5384 5413 5443 5470 5496 5522 5545 5567 5584 5601 5616 5630 5640 5647 5655 5660 5663 5664 5664 5666
5125 5129 5135 5142 5150 5159 5168 5179 5189 5201 5214 5230 5248 5266 5284 5303 5326 5352 5379 5408 5436 5463 5488 5512 5536 5557 5575 5592 5607 5621 5632 5638 5645 5650 5654 5656 5658 5659
5122 5126 5131 5139 5148 5158 5167 5177 5187 5199 5211 5225 5242 5259 5278 5297 5320 5346 5374 5401 5429 5457 5481 5505 5527 5548 5566 5582 5597 5612 5624 5632 5638 5644 5646 5648 5649 5652
5120 5124 5130 5138 5146 5156 5166 5174 5184 5196 5208 5222 5237 5254 5271 5290 5311 5337 5366 5394 5422 5450 5475 5498 5519 5539 5557 5573 5590 5605 5616 5624 5631 5634 5637 5641 5643 5644
5121 5125 5131 5138 5146 5155 5163 5172 5181 5191 5204 5217 5232 5247 5264 5281 5302 5325 5354 5385 5416 5443 5469 5493 5514 5533 5549 5565 5580 5596 5607 5617 5623 5627 5631 5635 5637 5638
5124 5127 5133 5140 5148 5156 5163 5171 5178 5187 5199 5211 5225 5239 5256 5274 5295 5318 5344 5373 5408 5434 5459 5487 5507 5525 5543 5559 5575 5589 5599 5609 5617 5622 5625 5628 5631 5633
5128 5130 5135 5142 5149 5157 5164 5171 5178 5187 5196 5205 5219 5233 5250 5269 5289 5313 5336 5360 5390 5419 5446 5480 5502 5521 5537 5552 5567 5581 5592 5601 5609 5615 5620 5623 5625 5627
5133 5134 5138 5144 5152 5160 5167 5174 5182 5190 5197 5205 5217 5232 5248 5266 5286 5307 5329 5355 5385 5415 5440 5472 5497 5515 5529 5544 5559 5573 5585 5595 5603 5610 5615 5619 5622 5623
5140 5140 5142 5148 5155 5163 5170 5178 5186 5195 5202 5210 5221 5234 5249 5266 5284 5304 5327 5352 5386 5416 5437 5464 5489 5507 5521 5536 5551 5565 5578 5588 5598 5604 5610 5614 5617 5617
5149 5148 5149 5153 5159 5166 5173 5181 5190 5199 5206 5215 5226 5238 5252 5267 5284 5301 5319 5343 5371 5403 5424 5450 5478 5497 5514 5527 5542 5557 5570 5581 5591 5598 5604 5608 5610 5610
5156 5156 5156 5159 5164 5170 5176 5184 5191 5201 5209 5219 5231 5243 5257 5271 5287 5303 5319 5336 5359 5387 5410 5433 5462 5486 5507 5519 5533 5550 5565 5576 5584 5591 5597 5602 5605 5608
5162 5161 5162 5165 5169 5174 5180 5188 5195 5204 5213 5223 5235 5247 5259 5274 5289 5306 5322 5338 5355 5376 5398 5420 5446 5473 5496 5511 5525 5540 5555 5568 5578 5585 5590 5593 5596 5600
5168 5167 5167 5169 5173 5179 5185 5191 5199 5207 5216 5225 5236 5248 5260 5275 5291 5308 5326 5342 5360 5377 5397 5417 5438 5460 5484 5503 5517 5530 5543 5555 5568 5576 5582 5586 5590 5592
5175 5174 5174 5175 5179 5183 5189 5195 5201 5208 5216 5226 5237 5249 5263 5278 5293 5308 5324 5341 5361 5380 5396 5415 5434 5453 5474 5493 5508 5522 5533 5544 5555 5564 5570 5573 5577 5582
5181 5180 5180 5182 5184 5188 5192 5197 5203 5211 5218 5227 5238 5250 5263 5277 5292 5306 5320 5337 5355 5372 5391 5408 5427 5445 5462 5479 5495 5509 5521 5531 5541 5550 5555 5556 5558 5565
5188 5185 5184 5185 5186 5189 5193 5198 5204 5211 5217 5227 5237 5248 5260 5273 5288 5303 5317 5331 5347 5362 5380 5399 5419 5438 5454 5466 5476 5494 5508 5516 5523 5533 5542 5543 5538 5541
5193 5190 5188 5187 5188 5190 5194 5198 5204 5210 5217 5226 5236 5246 5257 5270 5283 5297 5311 5325 5339 5355 5371 5388 5408 5430 5446 5454 5460 5475 5492 5501 5508 5514 5521 5526 5524 5521
5198 5195 5192 5190 5190 5192 5194 5198 5203 5210 5217 5225 5234 5243 5253 5265 5278 5290 5304 5317 5332 5347 5364 5379 5395 5414 5432 5441 5447 5455 5470 5486 5495 5499 5500 5501 5501 5501
5201 5198 5196 5193 5192 5193 5194 5197 5202 5208 5213 5221 5231 5239 5250 5260 5271 5283 5295 5309 5324 5339 5354 5368 5382 5398 5414 5428 5435 5440 5449 5463 5477 5487 5490 5491 5488 5485
5203 5201 5199 5196 5194 5194 5194 5196 5200 5205 5211 5218 5225 5234 5243 5253 5264 5275 5287 5300 5314 5328 5343 5358 5374 5389 5405 5417 5422 5427 5433 5441 5449 5460 5470 5481 5486 5480
5205 5204 5202 5199 5197 5194 5194 5194 5196 5201 5206 5212 5219 5227 5235 5245 5255 5266 5278 5290 5303 5317 5332 5348 5362 5376 5387 5399 5407 5412 5418 5425 5432 5439 5443 5454 5465 5467